Overview Statistics Trail Chart Weather Telemetry Raw packets
 

This is the latest recevied weather packets stored in our database for station/object OK5TVR-5. If no packets are shown the sender has not sent any weather packets the latest 10 day(s).

<< 11 12 13 14 15 16 17 >>
Time Temp. Humidity Pressure Rain* Wind** Luminosity Snow
1788396741 15.56° C 84% 1014 hPa 0 mm - 0 W/m² -
1788395840 15.56° C 85% 1014.1 hPa 0 mm - 0 W/m² -
1788394940 15.56° C 85% 1014 hPa 0.25 mm - 0 W/m² -
1788394041 15.56° C 84% 1014.1 hPa 0.25 mm - 0 W/m² -
1788393146 15.56° C 85% 1014.1 hPa 0.25 mm - 0 W/m² -
1788393140 15.56° C 85% 1014.1 hPa 0.25 mm - 0 W/m² -
1788392245 15.56° C 84% 1014.3 hPa 0.25 mm - 0 W/m² -
1788392245 15.56° C 84% 1014.3 hPa 0.25 mm - 0 W/m² -
1788392240 15.56° C 84% 1014.3 hPa 0.25 mm - 0 W/m² -
1788391343 15° C 86% 1014.3 hPa 0 mm - 0 W/m² -
1788390446 14.44° C 91% 1014.4 hPa 0 mm - 0 W/m² -
1788390442 14.44° C 91% 1014.4 hPa 0 mm - 0 W/m² -
1788390440 14.44° C 91% 1014.4 hPa 0 mm - 0 W/m² -
1788389540 15° C 84% 1014.3 hPa 0 mm - 0 W/m² -
1788388642 15° C 83% 1014.3 hPa 0 mm - 0 W/m² -
1788387740 15° C 83% 1014.4 hPa 0 mm - 0 W/m² -
1788386841 15° C 84% 1014.4 hPa 0 mm - 0 W/m² -
1788385940 15° C 82% 1014.3 hPa 0 mm - 0 W/m² -
1788385040 15° C 84% 1014.5 hPa 0 mm - 0 W/m² -
1788384146 15.56° C 83% 1014.2 hPa 0 mm - 0 W/m² -
1788384145 15.56° C 83% 1014.2 hPa 0 mm - 0 W/m² -
1788384140 15.56° C 83% 1014.2 hPa 0 mm - 0 W/m² -
1788383240 15.56° C 84% 1014.1 hPa 0 mm - 0 W/m² -
1788382345 - - - - - - -
1788382342 15.56° C 84% 1014.2 hPa 0 mm - 0 W/m² -

* Rain latest hour (hover to see other rain measurements)
** Current wind speed in m/s (hover to see current wind gust speed)